EW1168 Weather Reports


time (UTC)temp
C
wind
direction
speed
KPH
gust
KPH
rain 1hr
cm
rain 24hr
cm
rain mn
cm
humidity
%
barometer
mb
20260505223400 11 0 9.7 22.5 0.00 0.00 0.00 77 1009.3
20260505222400 11 318 11.3 22.5 0.00 0.00 0.00 77 1009.4
20260505221400 11 75 12.9 24.1 0.00 0.00 0.00 76 1009.3
20260505220359 11 347 11.3 22.5 0.00 0.00 0.00 77 1009.4
20260505215847 11 0 12.9 32.2 0.00 0.00 0.00 76 1009.3
20260505214359 11 312 9.7 24.1 0.00 0.00 0.00 78 1009.4
20260505213846 11 327 9.7 20.9 0.00 0.00 0.00 78 1009.4
20260505212404 11 355 9.7 20.9 0.00 0.00 0.00 78 1009.5
20260505211838 11 40 12.9 25.7 0.00 0.00 0.00 77 1009.5
20260505210359 11 61 11.3 27.4 0.00 0.00 0.00 78 1009.5
20260505205410 11 344 11.3 24.1 0.00 0.00 0.00 79 1009.6
20260505204844 11 337 9.7 20.9 0.00 0.00 0.00 79 1009.6
20260505203359 11 35 11.3 22.5 0.00 0.00 0.00 79 1009.5
20260505202359 11 345 9.7 19.3 0.00 0.00 0.00 80 1009.5
20260505201359 11 309 11.3 25.7 0.00 0.00 0.00 81 1009.4
20260505200358 11 306 11.3 20.9 0.00 0.00 0.00 82 1009.5
20260505195359 11 317 11.3 22.5 0.00 0.00 0.00 81 1009.4
20260505194359 11 42 11.3 20.9 0.00 0.00 0.00 81 1009.3
20260505193852 11 355 11.3 25.7 0.00 0.00 0.00 81 1009.3
20260505192843 11 315 11.3 30.6 0.00 0.00 0.00 80 1009.1
20260505191359 11 306 11.3 25.7 0.00 0.00 0.00 80 1009.2
20260505190403 11 346 11.3 30.6 0.00 0.00 0.00 80 1009.1
20260505185843 11 325 14.5 27.4 0.00 0.00 0.00 80 1009.0
20260505184359 11 319 12.9 27.4 0.00 0.00 0.00 79 1008.8
20260505183842 12 345 14.5 33.8 0.00 0.00 0.00 80 1008.8
20260505182359 12 355 14.5 29.0 0.00 0.00 0.00 80 1008.8
20260505181358 12 340 14.5 30.6 0.00 0.00 0.00 80 1008.7
20260505180359 12 355 14.5 30.6 0.00 0.00 0.00 80 1008.7
20260505175358 12 309 16.1 30.6 0.00 0.00 0.00 80 1008.6
20260505174839 12 336 16.1 27.4 0.00 0.00 0.00 79 1008.7
20260505173359 12 350 14.5 25.7 0.00 0.00 0.00 79 1008.6
20260505172404 12 346 16.1 27.4 0.00 0.00 0.00 78 1008.7
20260505171358 12 321 16.1 29.0 0.00 0.00 0.00 78 1008.6
20260505170843 12 296 14.5 35.4 0.00 0.00 0.00 78 1008.7
20260505165359 12 340 14.5 27.4 0.00 0.00 0.00 78 1008.7
20260505164837 12 13 14.5 29.0 0.00 0.00 0.00 77 1008.8
20260505163403 12 351 14.5 29.0 0.00 0.00 0.00 77 1008.8
20260505162359 12 355 14.5 27.4 0.00 0.00 0.00 77 1008.7
20260505161359 12 9 16.1 29.0 0.00 0.00 0.00 78 1008.8
20260505160358 12 5 14.5 30.6 0.00 0.00 0.00 78 1008.9
20260505153358 12 44 14.5 27.4 0.00 0.00 0.00 78 1008.9
20260505152836 12 341 14.5 29.0 0.00 0.00 0.00 78 1009.1
20260505151359 12 26 14.5 29.0 0.00 0.00 0.00 79 1009.1
20260505150403 12 12 12.9 25.7 0.00 0.00 0.00 77 1009.1
20260505140358 13 350 16.1 30.6 0.00 0.00 0.00 76 1009.2
20260505124358 13 316 12.9 27.4 0.00 0.00 0.00 76 1009.7
20260505123358 13 348 12.9 25.7 0.00 0.00 0.00 76 1009.8
20260505122358 13 340 14.5 25.7 0.00 0.00 0.00 75 1009.8
20260505121358 13 338 16.1 30.6 0.00 0.00 0.00 76 1009.7
20260505120358 13 336 16.1 29.0 0.00 0.00 0.00 75 1009.8
20260505115358 13 13 14.5 30.6 0.00 0.00 0.00 76 1009.8
20260505114357 13 326 14.5 27.4 0.00 0.00 0.00 75 1009.8
20260505113358 13 321 14.5 29.0 0.00 0.00 0.00 74 1009.8
20260505112841 13 338 12.9 30.6 0.00 0.00 0.00 73 1009.8
20260505111355 13 355 12.9 25.7 0.00 0.00 0.00 74 1009.9
20260505110400 13 19 14.5 25.7 0.00 0.00 0.00 75 1010.0
20260505101355 13 5 12.9 27.4 0.00 0.00 0.00 75 1010.3
20260505100355 13 355 11.3 22.5 0.00 0.00 0.00 74 1010.3
20260505095400 13 331 12.9 24.1 0.00 0.00 0.00 74 1010.3
20260505094833 13 339 12.9 25.7 0.00 0.00 0.00 74 1010.4
20260505093838 13 319 12.9 22.5 0.00 0.00 0.00 75 1010.3
20260505092832 13 314 11.3 24.1 0.00 0.00 0.00 75 1010.4
20260505091837 13 331 11.3 24.1 0.00 0.00 0.00 76 1010.4
20260505090400 13 13 9.7 20.9 0.00 0.00 0.00 76 1010.5
20260505085357 12 326 9.7 24.1 0.00 0.00 0.00 77 1010.5
20260505084355 12 15 12.9 27.4 0.00 0.00 0.00 77 1010.5
20260505083356 12 335 11.3 19.3 0.00 0.00 0.00 77 1010.6
20260505082355 12 0 11.3 22.5 0.00 0.00 0.00 77 1010.6
20260505081355 12 331 9.7 20.9 0.00 0.00 0.00 77 1010.6
20260505080355 12 334 9.7 22.5 0.00 0.00 0.00 78 1010.4
20260505080330 12 350 11.3 27.4 0.00 0.00 0.00 79 1010.4
20260505074358 12 317 11.3 24.1 0.00 0.00 0.00 79 1010.4
20260505073826 12 313 11.3 19.3 0.00 0.00 0.00 80 1010.3
20260505072353 12 319 9.7 27.4 0.00 0.00 0.00 80 1010.2
20260505071353 12 343 12.9 22.5 0.00 0.00 0.00 81 1010.1
20260505070353 11 341 11.3 25.7 0.00 0.00 0.00 81 1010.1
20260505065353 11 344 12.9 22.5 0.00 0.00 0.00 81 1010.3
20260505064824 11 331 11.3 25.7 0.00 0.00 0.00 81 1010.3
20260505063353 11 322 11.3 20.9 0.00 0.00 0.00 81 1010.6
20260505062353 11 344 9.7 19.3 0.00 0.00 0.00 82 1010.7
20260505061357 11 59 8.0 17.7 0.00 0.00 0.00 83 1010.8
20260505060353 11 22 9.7 19.3 0.00 0.00 0.00 83 1010.8
20260505055352 11 56 9.7 17.7 0.00 0.00 0.00 83 1010.8
20260505054403 11 337 9.7 16.1 0.00 0.00 0.00 83 1010.8
20260505053353 11 304 8.0 19.3 0.00 0.00 0.00 83 1010.8
20260505052353 11 342 9.7 22.5 0.00 0.00 0.00 83 1010.8
20260505051353 11 0 9.7 17.7 0.00 0.00 0.00 84 1010.9
20260505050353 11 329 9.7 19.3 0.00 0.00 0.00 84 1010.8
20260505041351 11 348 8.0 16.1 0.00 0.00 0.00 84 1010.6
20260505040835 11 333 9.7 20.9 0.00 0.00 0.00 84 1010.7
20260505035351 11 326 9.7 17.7 0.00 0.00 0.00 85 1010.7
20260505034350 11 341 9.7 20.9 0.00 0.00 0.00 84 1010.8
20260505033352 11 149 8.0 19.3 0.00 0.00 0.00 85 1010.9
20260505032355 11 329 8.0 16.1 0.00 0.00 0.00 85 1010.8
20260505031350 11 19 6.4 16.1 0.00 0.00 0.00 86 1010.8
20260505030831 11 346 8.0 17.7 0.00 0.00 0.00 86 1010.9
20260505025348 11 336 8.0 16.1 0.00 0.00 0.00 85 1010.9
20260505024831 11 27 9.7 17.7 0.00 0.00 0.00 85 1010.8
20260505023348 11 339 9.7 24.1 0.00 0.00 0.00 85 1010.7
20260505022837 11 17 8.0 16.1 0.00 0.00 0.00 85 1010.6
20260505021346 11 355 8.0 20.9 0.00 0.00 0.00 85 1010.7
20260505020347 11 74 8.0 17.7 0.00 0.00 0.00 85 1010.9
20260505015347 11 0 8.0 19.3 0.00 0.00 0.00 85 1011.1
20260505014346 11 0 9.7 19.3 0.00 0.00 0.00 85 1011.1
20260505013347 11 344 9.7 24.1 0.00 0.00 0.00 86 1011.1
20260505012821 11 321 9.7 19.3 0.00 0.00 0.00 87 1011.2
20260505011346 11 317 11.3 19.3 0.00 0.00 0.00 87 1011.3
20260505010346 11 311 9.7 19.3 0.00 0.00 0.00 87 1011.2
20260505005352 11 343 9.7 24.1 0.00 0.00 0.00 87 1011.5
20260505004836 11 327 11.3 20.9 0.00 0.00 0.00 87 1011.6
20260505003346 11 10 9.7 22.5 0.00 0.00 0.00 87 1011.6
20260505002347 12 9 9.7 24.1 0.00 0.00 0.00 87 1011.6
20260505001346 11 38 8.0 17.7 0.00 0.00 0.00 87 1011.6
20260505000351 11 343 9.7 20.9 0.00 0.00 0.00 88 1011.7
20260504235828 11 329 9.7 19.3 0.00 0.00 0.00 88 1011.7
20260504234347 11 20 8.0 20.9 0.00 0.00 0.00 88 1011.8
20260504233346 11 5 9.7 22.5 0.00 0.00 0.00 89 1011.8
20260504232346 11 37 9.7 17.7 0.00 0.00 0.00 89 1011.8
20260504231346 11 329 9.7 22.5 0.00 0.00 0.00 89 1011.9
20260504230347 11 329 11.3 20.9 0.00 0.00 0.00 89 1011.9
20260504225346 11 0 12.9 27.4 0.00 0.00 0.00 89 1012.0
20260504224826 11 319 12.9 22.5 0.00 0.00 0.00 89 1012.1